Content
SEND FEEDBACK

Daily
Averages
Monthly
Summary
Canada

RICHMOND NATURE PARK, BRITISH COLUMBIA


Home > North America > Canada > British Columbia
Elevation: 10 feet     Latitude: 49 10N     Longitude: 123 05W

WEATHER
 
SELECT A DAY
Number of Records: 194,403;   Date Range: 1/1/95 - 7/28/14
 
SHARE

PRINT THIS DATA

[ ← Previous Day ]
WEATHER ALMANAC - JULY 1, 2013
[ Next Day → ]
[ °C ]   °F
We're sorry. There is no daily almanac available for Richmond Nature Park, British Columbia on July 1, 2013.
WEATHER BY HOUR - JULY 1, 2013
[ °C ]   °F
Local TimeTemperatureDewpointHumidityBarometerVisibilityWind DirectionWind SpeedGust SpeedPrecipitationEventsConditions
1:00 AM68.0 °F64.4 °F88 %29.91 in20.0 miSE (130°)3.5 mphPartly Cloudy
2:00 AM66.2 °F62.6 °F88 %29.92 in20.0 miEast (100°)6.9 mphClear
3:00 AM66.2 °F60.8 °F83 %29.92 in20.0 miEast (100°)2.3 mphClear
4:00 AM64.4 °F60.8 °F88 %29.93 in20.0 miNNW (330°)3.5 mphClear
5:00 AM64.0 °F62.0 °F90 %29.95 in19.0 miSW (220°)2.3 mphScattered Clouds
5:00 AM64.4 °F60.8 °F88 %29.94 in20.0 miSW (230°)2.3 mphPartly Cloudy
6:00 AM64.4 °F62.6 °F94 %29.95 in30.0 miWest (260°)2.3 mphPartly Cloudy
7:00 AM68.0 °F62.6 °F83 %29.97 in30.0 miWest (260°)5.8 mphScattered Clouds
8:00 AM68.0 °F64.4 °F88 %29.97 in30.0 miWSW (240°)4.6 mphPartly Cloudy
9:00 AM71.6 °F66.2 °F83 %29.97 in30.0 miWest (260°)3.5 mphPartly Cloudy
10:00 AM71.6 °F66.2 °F83 %29.96 in30.0 miSW (230°)8.1 mphPartly Cloudy
11:00 AM72.0 °F67.0 °F79 %29.96 in28.0 miWest (270°)8.1 mphScattered Clouds
11:00 AM71.6 °F66.2 °F83 %29.96 in30.0 miWest (260°)9.2 mphPartly Cloudy
12:00 PM73.4 °F66.2 °F78 %29.94 in30.0 miWNW (300°)6.9 mphMostly Cloudy
1:00 PM73.4 °F66.2 °F78 %29.93 in30.0 miWNW (300°)10.4 mphMostly Cloudy
2:00 PM75.2 °F66.2 °F73 %29.93 in30.0 miWNW (290°)9.2 mphScattered Clouds
3:00 PM77.0 °F66.2 °F69 %29.93 in30.0 miWNW (290°)4.6 mphScattered Clouds
4:00 PM80.6 °F66.2 °F61 %29.91 in30.0 miNW (320°)3.5 mphScattered Clouds
5:00 PM75.0 °F67.0 °F70 %29.93 in28.0 miSSW (210°)10.4 mphPartly Cloudy
5:00 PM75.2 °F66.2 °F73 %29.92 in30.0 miSSW (210°)11.5 mphScattered Clouds
6:00 PM80.6 °F68.0 °F65 %29.93 in30.0 miWSW (240°)4.6 mphScattered Clouds
7:00 PM80.6 °F64.4 °F58 %29.91 in30.0 miSE (140°)8.1 mphPartly Cloudy
8:00 PM77.0 °F62.6 °F61 %29.92 in30.0 miESE (120°)8.1 mphScattered Clouds
9:00 PM73.4 °F60.8 °F65 %29.93 in30.0 miSSE (160°)5.8 mphPartly Cloudy
10:00 PM69.8 °F59.0 °F68 %29.95 in20.0 miESE (110°)8.1 mphPartly Cloudy
11:00 PM66.0 °F55.0 °F59 %29.97 in19.0 miSE (130°)11.5 mphScattered Clouds
11:00 PM66.2 °F55.4 °F68 %29.97 in20.0 miSE (130°)13.8 mphPartly Cloudy
Hourly data recorded from CYVR, located miles away from Richmond Nature Park, British Columbia







STORIES FROM OUR PARTNERS